• In Netherlands
  • List of Countries
  • For 7 days
  • Water Temperature
  • Satellite Maps
  • Weather Map
  • Weather Widgets
  • user-avatar
    Login

    Hourly Weather Sydney

    Today, 21 September, Thursday

    Time Temperature Precipitation Wind Pressure Humidity
    00:00 +10°C° 0 mm 2 mps 763 mmHg 88%
    01:00 +10°C° 0 mm 2 mps 763 mmHg 90%
    02:00 +10°C° 0 mm 2 mps 762 mmHg 89%
    03:00 +9°C° 0 mm 2 mps 762 mmHg 89%
    04:00 +9°C° 0 mm 2 mps 762 mmHg 88%
    05:00 +10°C° 0 mm 2 mps 762 mmHg 83%
    06:00 +10°C° 0 mm 2 mps 762 mmHg 77%
    07:00 +12°C° 0 mm 2 mps 762 mmHg 71%
    08:00 +16°C° 0 mm 2 mps 762 mmHg 57%
    09:00 +20°C° 0 mm 2 mps 762 mmHg 43%
    10:00 +25°C° 0 mm 2 mps 761 mmHg 30%
    11:00 +27°C° 0 mm 3 mps 761 mmHg 26%
    12:00 +28°C° 0 mm 3 mps 760 mmHg 23%
    13:00 +30°C° 0 mm 4 mps 759 mmHg 20%
    14:00 +30°C° 0 mm 4 mps 759 mmHg 21%
    15:00 +29°C° 0 mm 5 mps 759 mmHg 23%
    16:00 +29°C° 0 mm 6 mps 758 mmHg 25%
    17:00 +26°C° 0 mm 6 mps 759 mmHg 32%
    18:00 +23°C° 0 mm 5 mps 759 mmHg 39%
    19:00 +20°C° 0 mm 5 mps 759 mmHg 47%
    20:00 +19°C° 0 mm 5 mps 760 mmHg 49%
    21:00 +18°C° 0 mm 4 mps 760 mmHg 51%
    22:00 +17°C° 0 mm 4 mps 760 mmHg 53%
    23:00 +15°C° 0 mm 4 mps 760 mmHg 53%

    Tomorrow, 22 September, Friday

    Time Temperature Precipitation Wind Pressure Humidity
    00:00 +16°C° 0 mm 3 mps 760 mmHg 52%
    01:00 +14°C° 0 mm 3 mps 760 mmHg 52%
    02:00 +14°C° 0 mm 3 mps 759 mmHg 51%
    03:00 +14°C° 0 mm 3 mps 759 mmHg 50%
    04:00 +14°C° 0 mm 2 mps 759 mmHg 50%
    05:00 +15°C° 0 mm 2 mps 759 mmHg 47%
    06:00 +16°C° 0 mm 2 mps 760 mmHg 44%
    07:00 +17°C° 0 mm 2 mps 760 mmHg 41%
    08:00 +20°C° 0 mm 2 mps 760 mmHg 33%
    09:00 +25°C° 0 mm 2 mps 760 mmHg 26%
    10:00 +29°C° 0 mm 2 mps 760 mmHg 18%
    11:00 +31°C° 0 mm 3 mps 759 mmHg 16%
    12:00 +33°C° 0 mm 3 mps 758 mmHg 14%
    13:00 +34°C° 0 mm 4 mps 758 mmHg 12%
    14:00 +34°C° 0 mm 4 mps 757 mmHg 13%
    15:00 +34°C° 0 mm 4 mps 757 mmHg 14%
    16:00 +34°C° 0 mm 5 mps 756 mmHg 14%
    17:00 +30°C° 0 mm 5 mps 757 mmHg 20%
    18:00 +27°C° 0 mm 4 mps 757 mmHg 26%
    19:00 +23°C° 0 mm 4 mps 758 mmHg 31%
    20:00 +22°C° 0 mm 4 mps 758 mmHg 34%
    21:00 +20°C° 0 mm 4 mps 758 mmHg 36%
    22:00 +19°C° 0 mm 3 mps 758 mmHg 38%
    23:00 +19°C° 0 mm 3 mps 758 mmHg 39%

    Day after tomorrow, 23 September, Saturday

    Time Temperature Precipitation Wind Pressure Humidity
    00:00 +18°C° 0 mm 3 mps 757 mmHg 40%
    01:00 +17°C° 0 mm 3 mps 757 mmHg 41%
    02:00 +17°C° 0 mm 3 mps 756 mmHg 40%
    03:00 +17°C° 0 mm 3 mps 756 mmHg 40%
    04:00 +16°C° 0 mm 3 mps 755 mmHg 40%
    05:00 +17°C° 0 mm 3 mps 755 mmHg 36%
    06:00 +18°C° 0 mm 4 mps 755 mmHg 33%
    07:00 +20°C° 0 mm 4 mps 755 mmHg 30%
    08:00 +25°C° 0 mm 4 mps 755 mmHg 24%
    09:00 +29°C° 0 mm 5 mps 755 mmHg 18%
    10:00 +35°C° 0 mm 5 mps 754 mmHg 12%
    11:00 +36°C° 0 mm 5 mps 753 mmHg 11%
    12:00 +38°C° 0 mm 6 mps 752 mmHg 11%
    13:00 +39°C° 0 mm 6 mps 751 mmHg 11%
    14:00 +39°C° 0 mm 5 mps 751 mmHg 11%
    15:00 +39°C° 0 mm 5 mps 750 mmHg 11%
    16:00 +39°C° 0 mm 5 mps 749 mmHg 11%
    17:00 +35°C° 0 mm 5 mps 750 mmHg 14%
    18:00 +32°C° 0 mm 4 mps 750 mmHg 16%
    19:00 +28°C° 0 mm 4 mps 750 mmHg 19%
    20:00 +27°C° 0 mm 4 mps 749 mmHg 21%
    21:00 +26°C° 0 mm 4 mps 749 mmHg 23%
    22:00 +25°C° 0 mm 5 mps 748 mmHg 24%
    23:00 +26°C° 0 mm 5 mps 748 mmHg 22%

    24 September, Sunday

    Time Temperature Precipitation Wind Pressure Humidity
    00:00 +26°C° 0 mm 5 mps 748 mmHg 21%
    01:00 +27°C° 0 mm 6 mps 747 mmHg 19%
    02:00 +26°C° 0 mm 5 mps 748 mmHg 22%
    03:00 +25°C° 0 mm 5 mps 748 mmHg 26%
    04:00 +23°C° 0 mm 5 mps 748 mmHg 30%
    05:00 +23°C° 0 mm 4 mps 749 mmHg 33%
    06:00 +23°C° 0 mm 4 mps 750 mmHg 36%
    07:00 +22°C° 0 mm 4 mps 751 mmHg 40%
    08:00 +26°C° 0 mm 4 mps 751 mmHg 32%
    09:00 +28°C° 0 mm 5 mps 751 mmHg 24%
    10:00 +30°C° 0 mm 5 mps 751 mmHg 16%
    11:00 +32°C° 0 mm 6 mps 750 mmHg 15%
    12:00 +33°C° 0 mm 7 mps 750 mmHg 15%
    13:00 +33°C° 0 mm 8 mps 749 mmHg 14%
    14:00 +33°C° 0 mm 8 mps 749 mmHg 14%
    15:00 +33°C° 0 mm 8 mps 749 mmHg 14%
    16:00 +32°C° 0 mm 8 mps 749 mmHg 14%
    17:00 +29°C° 0 mm 7 mps 750 mmHg 17%
    18:00 +27°C° 0 mm 6 mps 750 mmHg 19%
    19:00 +25°C° 0 mm 5 mps 751 mmHg 22%
    20:00 +23°C° 0 mm 5 mps 752 mmHg 24%
    21:00 +22°C° 0 mm 5 mps 752 mmHg 26%
    22:00 +20°C° 0 mm 4 mps 753 mmHg 28%
    23:00 +20°C° 0 mm 4 mps 753 mmHg 29%

    25 September, Monday

    Time Temperature Precipitation Wind Pressure Humidity
    00:00 +19°C° 0 mm 3 mps 753 mmHg 31%
    01:00 +18°C° 0 mm 3 mps 753 mmHg 32%
    02:00 +17°C° 0 mm 3 mps 753 mmHg 34%
    03:00 +17°C° 0 mm 3 mps 754 mmHg 36%
    04:00 +16°C° 0 mm 3 mps 754 mmHg 38%
    05:00 +16°C° 0 mm 3 mps 755 mmHg 38%
    06:00 +17°C° 0 mm 3 mps 755 mmHg 38%
    07:00 +17°C° 0 mm 3 mps 756 mmHg 38%
    08:00 +19°C° 0 mm 3 mps 756 mmHg 35%
    09:00 +21°C° 0 mm 3 mps 756 mmHg 33%
    10:00 +22°C° 0 mm 3 mps 756 mmHg 30%
    11:00 +22°C° 0.1 mm 4 mps 756 mmHg 31%
    12:00 +22°C° 0.1 mm 5 mps 756 mmHg 32%
    13:00 +22°C° 0.1 mm 6 mps 756 mmHg 34%
    14:00 +22°C° 0 mm 6 mps 756 mmHg 36%
    15:00 +21°C° 0 mm 7 mps 756 mmHg 38%
    16:00 +20°C° 0 mm 7 mps 756 mmHg 40%
    17:00 +20°C° 0 mm 7 mps 757 mmHg 42%
    18:00 +19°C° 0 mm 6 mps 758 mmHg 43%
    19:00 +17°C° 0 mm 5 mps 759 mmHg 44%
    20:00 +17°C° 0 mm 4 mps 759 mmHg 48%
    21:00 +16°C° 0 mm 3 mps 759 mmHg 51%
    22:00 +15°C° 0 mm 2 mps 760 mmHg 55%
    23:00 +15°C° 0 mm 2 mps 759 mmHg 56%

    26 September, Tuesday

    Time Temperature Precipitation Wind Pressure Humidity
    00:00 +15°C° 0 mm 2 mps 759 mmHg 58%
    01:00 +15°C° 0 mm 2 mps 759 mmHg 60%
    02:00 +15°C° 0.1 mm 1 mps 759 mmHg 64%
    03:00 +14°C° 0.1 mm 1 mps 760 mmHg 68%
    04:00 +14°C° 0.1 mm 1 mps 760 mmHg 72%
    05:00 +14°C° 0.1 mm 1 mps 760 mmHg 72%
    06:00 +14°C° 0.1 mm 1 mps 761 mmHg 72%
    07:00 +15°C° 0.1 mm 1 mps 761 mmHg 72%
    08:00 +18°C° 0.1 mm 1 mps 761 mmHg 67%
    09:00 +20°C° 0.1 mm 1 mps 760 mmHg 62%
    10:00 +22°C° 0.1 mm 1 mps 760 mmHg 57%
    11:00 +21°C° 0.2 mm 2 mps 759 mmHg 58%
    12:00 +21°C° 0.2 mm 2 mps 759 mmHg 60%
    13:00 +21°C° 0.2 mm 3 mps 758 mmHg 61%
    14:00 +20°C° 0.6 mm 3 mps 758 mmHg 66%
    15:00 +19°C° 0.6 mm 4 mps 758 mmHg 72%
    16:00 +19°C° 0.6 mm 4 mps 758 mmHg 78%
    17:00 +18°C° 0 mm 4 mps 757 mmHg 83%
    18:00 +17°C° 0 mm 4 mps 757 mmHg 88%
    19:00 +17°C° 0 mm 4 mps 757 mmHg 93%
    20:00 +16°C° 0.1 mm 5 mps 757 mmHg 93%
    21:00 +17°C° 0.1 mm 5 mps 757 mmHg 94%
    22:00 +17°C° 0.1 mm 5 mps 757 mmHg 94%
    23:00 +17°C° 0 mm 5 mps 756 mmHg 95%
    Show more